User: anonymous   Login
Location: Unspecified
(0.0000°N, 0.0000°E)
Time: 18:12:29
(UTC+00:00)
Language:

ONEWEB-0554 - Orbit

View from above orbital plane
View from above orbital plane
View from above satellite
View from above satellite

Ground track
Ground track

The orbit is defined by the following mean orbital elements,

1 56056U          26145.52217023 +.00000000 +00000-0 +96907-4 0 00000
2 56056  87.9103 233.2834 0002272  96.0945 264.0445 13.16593429    01
Epoch (UTC): 25 May 2026 12:31:55
Eccentricity: 0.0002272
inclination: 87.9103°
perigee height: 1196 km
apogee height: 1199 km
right ascension of ascending node: 233.2834°
argument of perigee: 96.0945°
revolutions per day: 13.16593429
mean anomaly at epoch: 264.0445°

The dashed part of the orbit path shows where the satellite is in the earth's shadow,  

DLR